الصفحة الرئيسية
METAR-TAF:

METAR-TAF

مطار :

Greeley-Weld County Airport

Greeley, كولورادو, الولايات المتحدة

دائرة عرض: 40-26N, خط طول: 104-38W, ارتفاع: 1420 متر

مراقبة الطقس الحالي

تاريخ ووقت الإصدار 10 دقيقة قبل الساعة 18:56UTC
ريح 6 عقدة من الجنوب/الجنوب الشرقي
درجة الحرارة 28°درجة مئوية
الرطوبة 42%
ضغط 1020 hPa
الرؤية: 16.1 كم
سماء صافية

METAR: KGXY 141856Z AUTO 16006KT 10SM CLR 28/14 A3011 RMK AO2 SLP150 T02780144

زمن: 13:06 (19:06 UTC)


TAF: مفقودة

أرصاد الطقس والتوقعات من أكثر من 4000 مطار (تقارير الطقس للمطار METAR والتنبؤ بالطقس بالمطارTAF).

المحطات المتاحة هي النقط الصفراء والحمراء على الخريطة.

حرك المؤشر فوق النقطة لمعرفة اسم المحطة.

ثم انقر لمعرفة أرصاد وتوقعات الطقس.

لتغيير الخارطة: اضغط على الأزرار الخضراء مع رمز الصليب الأسود للتكبير. على الزر الأخضر مع شرطة للتصغير، أو على الأسهم الخضراء للخرائط المجاورة.


METAR-TAF: